Showing default

SNUSAT-2, 43782

Orbit data source: Space-Track

SNUSAT-2, 43782 is a payload satellite owned by SNU (KR) in SSO that was launched on Mon, 03 Dec 2018 UTC via an FALCON 9 launch vehicle from the Air Force Western Test Range (AFWTR). Payload-class satellites include a variety of spacecraft equipped with specific instruments for various scientific and technological missions. These include communications satellites like Starlink; space stations such as the ISS; scientific satellites like the Hubble; Earth observation satellites from companies like Planet Labs, Umbra, and HawkEye 360; GPS; miniature CubeSats for education and research; and military/defense satellites.

Loading next visibility...
Identifier
43782, 2018-099AA
Orbit
SSO
Country
Flag of UnknownUnknown / SKOR
Related business
Manufacturer
SNU
Mission
Operational Amateur Technology
Bus & Motor
CUBESAT 3U, Unknown motor
Mass
4 kg wet, 4 kg dry
Launch date (UTC)
2018-12-03 (7 years ago)
Launch vehicle
FALCON 9
Launch site
Air Force Western Test Range (AFWTR)
Object type
Payload
Rocket body
Debris
Shape & HBR
Box, 0.1 m
Radar Cross Section
0.035 m², Small (<0.1 m²)

Expand to show TLE details & history
Last TLE update: 18 hours ago

TLE from 18 hours ago
0 SNUSAT-2
1 43782U 18099AA  25260.12528111  .00007248  00000-0  37998-3 0  9997
2 43782  97.4503 313.0872 0012434 161.8761 198.2918 15.16005712371571
Epoch: 2025-09-17T03:00Z
TLE epoch observation values (Epoch: 2025-09-17T03:00:24.287Z)
Latitude
-0°
Longitude
-88.31972°
Altitude
529.155 km
Speed
7.594 km/s
True Right ascension
20h 52m 20s
True Declination
0° 00' 00"
Sunlit
Object was in full shadow at epoch
Visualization orbit readout
Latitude
Unknown
Longitude
Unknown
Altitude
Unknown
Speed
Unknown
Apparent Right ascension
Unknown
Apparent Declination
Unknown
Sunlit
N/A
Visualization observer readout
Local Sidereal Time
13:24:04
Azimuth
Unknown
Elevation
Unknown
Doppler factor
Unknown
Orbital elements
Apogee altitude
523.471 km
Perigee altitude
506.329 km
Semi-major axis
6,893.037 km
Eccentricity
0.00124
Inclination
97.4503°
RAAN
313.0872°
Arg. of periapsis
161.8761°
True anomaly
198.24715°
Mean anomaly
198.2918°
Eccentric anomaly
198.26947°
Mean motion
3.79251 °/min
Orbital period
94.92 mins
BSTAR
0.00037998
Loading maneuver chart data...
Computing Atmospheric mass density...
Loading historical data...
Loading historical data...
Loading historical data...
Loading historical data...
Loading historical data...
Loading historical data...
Loading historical data...

Documentation

Showing up to 5 results
|